SL-24 R/B

Satellite information

Favourite Embed

Satellite Type and Status

ROCKET BODYIN ORBIT

Key statistics

Satellite SL-24 R/B at a glance.

Uptime

7417

Days in orbit

Revolutions

≈ 14.0

Per day

Orbit

SSO

Sun Synchronous Orbit

Inclination

97.8

Latest

Satellite identification and parameters

Extended collection of information and parameters for SL-24 R/B.

Object identification

Identified? True

Debris? False

Object name: SL-24 R/B

International designator: 2005-031C

Object number (NORAD): 28811

Object ID (CCSDS): 28811

Country: COMMONWEALTH OF INDEPENDENT STATES (CIS)

Current information (Y/N): Y

RCS size: LARGE

Orbital parameters

Period: 102.796 minutes

Inclination: 97.7712 deg

SMA: 7269.03 km

Apoapsis: 1188.991 km

Periapsis: 592.799 km

RAAN: 22.9474 deg

Eccentricy: 0.04100902

Argument of periapsis: 179.25 deg

Mean anomaly: 180.9374 deg

Mean motion: 14.00838426 rev/day

Mean motion (dot): -0.00000283 rev/day2

B* drag term: -0.000077537411 1/REarth

Two-line elements (TLE)

Creation date: Dec. 12, 2025, 10:14 a.m.

Reference frame: TEME

Reference center: EARTH

Epoch: Dec. 12, 2025, 3:10 a.m. UTC

TLE line 0: 0 SL-24 R/B

TLE line 1: 1 28811U 05031C 25346.13201014 -.00000283 00000-0 -77537-4 0 9999

TLE line 2: 2 28811 97.7712 22.9474 0410090 179.2500 180.9374 14.00838426 37403

Live tracking on map

Real-time ground track for satellite SL-24 R/B.

In-orbit conjunctions

A list of the most updated potential collisions computed for object SL-24 R/B.

Target Orbit TCA Probability of collision Miss distance Type
CZ-2C DEB SSO 2025-10-18 21:36:31 0.000115283 963.0 (m) DEBRIS
CZ-6A DEB LEO 2025-04-14 15:33:49 0.0001900516 731.0 (m) DEBRIS
FENGYUN 1C DEB SSO 2024-09-28 17:35:34 0.0001331245 404.0 (m) DEBRIS

Associated space launch

The Optical Inter-orbit Communications Engineering Test Satellite (OICETS), also called Kirari, was an experimental satellite launched by JAXA to demonstrate interorbital communication between satellites through optical (laser) means.

SL-24 R/B was lifted into orbit during the mission ‘Dnepr | Kirari’, on board a Dnepr space rocket.

The launch took place on Aug. 23, 2005, 9:09 p.m. from 109/95.

For more information about the launch, click the button.

Launch to space Dnepr | Kirari
Dnepr | Kirari

Agency: N/A

Status: Launch Successful

Launch date: Aug. 23, 2005, 9:09 p.m. UTC

Rocket: Dnepr

Launch pad: 109/95

Location: Baikonur Cosmodrome, Republic of Kazakhstan

...

Latest news about this satellite

There are no fresh news available about this satellite. Check back as we update our databases every day.


Newsletter sign-up

Weekly statistics, charts and insights to help you stay on top of the space industry.